Venice Marco Polo Airport

Jump to: basic info | weather | frequencies | runways | comments

Related pages: nearby airports | nearby navaids | notams | map

Basic information (top)

Codes: VCE LIPZ
Location: lon 45.505299, lat 12.351900, elev 7 ft / 2 m msl
Status: large_airport
Scheduled airline service: yes
Links: Wikipedia Mobile

Weather (top)

Current conditions (rec'd 2015/04/21 22:50Z):

LIPZ 212250Z 02007KT 340V040 CAVOK 14/12 Q1023

Airport forecast (rec'd 2015/04/21 18:21Z):

TAF LIPZ 211700Z 2118/2224 VRB06KT 9999 FEW025 
      TEMPO 2122/2206 4000 BR 
      BECMG 2208/2210 14010KT 
      BECMG 2218/2220 04008KT

Frequencies (top)

Verify before use: may be inaccurate or out of date.

APP: 118.9 MHz (APP)
ATIS: 122.225 MHz (ATIS)
GND: 121.7 MHz (GND)
TWR: 120.2 MHz (TWR)

Runways (top)

04L/22R: 9,121 x 148 ft (2,780 x 45 m) — paved — lighted — threshold 04L displaced 308 ft (94 m)

04R/22L: 10,827 x 148 ft (3,300 x 45 m) — paved — lighted

Latest comments (top)

Not recomended for general aviation -smal plane: landing for less than 1 ton MTOW 2 ... [read]

flight cancellation dublin: Trying to find reason for today flight ... [read]

More... (top)

See also NOTAMs and nearby airports and navaids, or visit the Venice Marco Polo Airport page at the main OurAirports website..